Orbital Elements at Epoch 2459000.5 (2020-May-31.0) TDB
Reference: JPL 22 (heliocentric ecliptic J2000)
Element | Value | Uncertainty (1-sigma) | Units |
e | .2727859502006175 | 6.8052e-08 | |
a | 2.719192838526086 | 3.8475e-08 | au |
q | 1.977435236290033 | 1.9596e-07 | au |
i | 10.01632935968252 | 6.0049e-06 | deg |
node | 109.6106453412553 | 4.3319e-05 | deg |
peri | 74.15743417503593 | 4.5838e-05 | deg |
M | 61.72348139978764 | 1.63e-05 | deg |
tp | 2458719.694020502195 (2019-Aug-24.19402050) | 6.961e-05 | TDB |
period | 1637.790842749798 4.48 | 3.4761e-05 9.517e-08 | d yr |
n | .2198082872386632 | 4.6653e-09 | deg/d |
Q | 3.460950440762139 | 4.8971e-08 | au |
|
| | Orbit Determination Parameters
Additional Information
|